Weather History for Miles City, MT

Change the Weather History Date:

Saturday, December 7, 2013

  Actual Average Record
Temperature  
Mean Temperature -26 °F 22 °F  
Max Temperature -17 °F 33 °F 56 °F (1939)
Min Temperature -36 °F 11 °F -36 °F (2013)
Degree Days  
Heating Degree Days 91 43  
Month to date heating degree days 433 294  
Since 1 July heating degree days 2140 2093  
Cooling Degree Days 0 0  
Month to date cooling degree days 0 0  
Year to date cooling degree days 877 730  
Moisture  
Dew Point -30 °F    
Average Humidity 87    
Maximum Humidity 100    
Minimum Humidity 73    
Precipitation  
Precipitation T in 0.01 in 0.27 in (1958)
Month to date precipitation 0.16 0.06  
Year to date precipitation 16.66 12.21  
Snow  
Snow 0.00 in - - ()
Snow Depth 0.00 in    
Sea Level Pressure  
Sea Level Pressure 30.60 in    
Wind  
Wind Speed 4 mph (South)    
Max Wind Speed 9 mph    
Max Gust Speed 10 mph    
Visibility 6 miles    
Events Fog , Snow    
T = Trace of Precipitation, MM = Missing Value Source: NWS Daily Summary

Daily Weather History Graph

Daily Weather History Graph

Search for Another Location

Airport:

Trip Planner

Search our weather history database for the weather conditions in past years. The results will help you decide how hot, cold, wet, or windy it might be!

Date:

Astronomy

Dec. 07, 2013 Rise Set
Actual Time 7:33 AM MST 4:16 PM MST
Civil Twilight 6:58 AM MST 4:51 PM MST
Nautical Twilight 6:20 AM MST 5:29 PM MST
Astronomical Twilight 5:44 AM MST 6:05 PM MST
Moon 11:07 AM MST (12/7) 10:15 PM MST (12/7)
Length of Visible Light 9h 52m
Length of Day
8h 43m
Waxing Crescent, 30% of the Moon is Illuminated
Dec 7
Waxing Crescent
Dec 9
First Quarter
Dec 17
Full
Dec 25
Last Quarter
Jan 1
New

Hourly Weather History & Observations

Time (MST) Temp. Windchill Dew Point Humidity Pressure Visibility Wind Dir Wind Speed Gust Speed Precip Events Conditions
12:14 AM -29.0 °F -41.0 °F -33.0 °F 81% 30.53 in 1.8 mi SSE 3.5 mph - N/A   Partly Cloudy
12:20 AM -29.0 °F - -32.1 °F 85% 30.53 in 0.8 mi Calm Calm - N/A   Mist
12:28 AM -29.0 °F - -32.1 °F 85% 30.53 in 0.5 mi Calm Calm - N/A Fog Light Freezing Fog
12:34 AM -27.9 °F - -32.1 °F 81% 30.52 in 2.0 mi Calm Calm - N/A   Clear
12:42 AM -29.0 °F - -33.0 °F 81% 30.52 in 7.0 mi Calm Calm - N/A   Clear
12:53 AM -27.9 °F - -31.0 °F 85% 30.81 in 7.0 mi Calm Calm - N/A   Clear
1:31 AM -29.0 °F - -33.0 °F 81% 30.51 in 7.0 mi Calm Calm - N/A   Scattered Clouds
1:49 AM -31.0 °F -43.3 °F - N/A% 30.51 in 1.8 mi South 3.5 mph - N/A   Scattered Clouds
1:53 AM -29.9 °F -47.1 °F - N/A% 30.81 in 1.2 mi South 5.8 mph - N/A   Scattered Clouds
2:12 AM -32.1 °F -49.6 °F - N/A% 30.51 in 0.8 mi South 5.8 mph - N/A   Mist
2:24 AM -31.0 °F -48.4 °F - N/A% 30.51 in 1.2 mi SSW 5.8 mph - N/A   Partly Cloudy
2:30 AM -31.0 °F -48.4 °F - N/A% 30.51 in 3.0 mi South 5.8 mph - N/A   Partly Cloudy
2:53 AM -29.0 °F -46.0 °F -34.1 °F 77% 30.81 in 4.0 mi South 5.8 mph - N/A   Haze
3:00 AM -32.1 °F -49.6 °F - N/A% 30.51 in 1.5 mi South 5.8 mph - N/A   Clear
3:10 AM -33.0 °F -45.5 °F - N/A% 30.51 in 0.8 mi South 3.5 mph - N/A   Clear
3:18 AM -32.1 °F - - N/A% 30.51 in 2.0 mi Calm Calm - N/A   Clear
3:26 AM -31.0 °F - - N/A% 30.50 in 1.0 mi Calm Calm - N/A   Clear
3:36 AM -29.9 °F - - N/A% 30.50 in 3.0 mi Calm Calm - N/A   Clear
3:53 AM -29.9 °F -44.8 °F - N/A% 30.80 in 8.0 mi SSW 4.6 mph - N/A   Clear
4:53 AM -32.1 °F -49.6 °F - N/A% 30.79 in 6.0 mi South 5.8 mph - N/A   Haze
5:53 AM -35.0 °F -50.7 °F - N/A% 30.78 in 10.0 mi SSE 4.6 mph - N/A   Clear
6:53 AM -34.1 °F -52.0 °F - N/A% 30.78 in 10.0 mi South 5.8 mph - N/A   Clear
7:53 AM -33.0 °F -48.4 °F - N/A% 30.79 in 10.0 mi South 4.6 mph - N/A   Clear
8:53 AM -31.0 °F -50.3 °F - N/A% 30.78 in 10.0 mi SSE 6.9 mph - N/A   Clear
9:53 AM -27.9 °F -39.8 °F -27.9 °F 100% 30.76 in 10.0 mi SSE 3.5 mph - N/A   Clear
10:53 AM -26.0 °F -45.8 °F -31.0 °F 77% 30.74 in 9.0 mi SSE 8.1 mph - 0.00 in Snow Light Snow
11:53 AM -23.1 °F - -27.0 °F 82% 30.69 in 10.0 mi Calm Calm - 0.00 in   Clear
12:53 PM -20.9 °F - -25.1 °F 81% 30.64 in 10.0 mi Calm Calm - N/A   Clear
1:53 PM -20.0 °F - -25.1 °F 78% 30.61 in 10.0 mi Calm Calm - N/A   Clear
2:53 PM -18.0 °F -33.0 °F -26.0 °F 67% 30.57 in 9.0 mi North 5.8 mph - 0.00 in Snow Light Snow
3:53 PM -20.9 °F -34.3 °F -27.9 °F 70% 30.56 in 10.0 mi NE 4.6 mph - 0.00 in   Clear
4:53 PM -24.0 °F - -29.0 °F 77% 30.56 in 10.0 mi Calm Calm - N/A   Clear
5:53 PM -25.1 °F -36.5 °F -29.9 °F 78% 30.56 in 10.0 mi North 3.5 mph - N/A   Clear
6:53 PM -25.1 °F -43.1 °F -29.9 °F 78% 30.55 in 10.0 mi NNE 6.9 mph - N/A   Clear
7:53 PM -27.0 °F -41.5 °F -32.1 °F 77% 30.54 in 10.0 mi North 4.6 mph - N/A   Mostly Cloudy
8:53 PM -26.0 °F -37.5 °F -31.0 °F 77% 30.51 in 10.0 mi North 3.5 mph - N/A   Mostly Cloudy
9:53 PM -22.0 °F - -27.0 °F 77% 30.46 in 10.0 mi Calm Calm - N/A   Overcast
10:53 PM -20.9 °F - -26.0 °F 77% 30.43 in 10.0 mi Calm Calm - N/A   Overcast
11:53 PM -24.0 °F -35.2 °F -29.9 °F 74% 30.41 in 7.0 mi West 3.5 mph - 0.00 in Snow Light Snow